DW3929 Weather Reports


Display with metric or nautical units.
time (UTC)temp
F
wind
direction
speed
MPH
gust
MPH
rain 1hr
in
rain 24hr
in
rain mn
in
humidity
%
barometer
mb
20260904030318 83 360 4.0 13.0 0.00 0.00 0.00 82 1012.0
20260904025815 82 360 2.0 13.0 0.00 0.00 0.00 82 1012.0
20260904025315 83 360 1.0 9.0 0.00 0.00 0.00 82 1012.0
20260904024815 83 360 1.0 5.0 0.00 0.00 0.00 81 1011.8
20260904024315 83 360 1.0 8.0 0.00 0.00 0.00 81 1011.7
20260904023813 83 360 1.0 8.0 0.00 0.00 0.00 81 1011.6
20260904023313 83 360 2.0 5.0 0.00 0.00 0.00 80 1011.4
20260904022813 83 360 2.0 4.0 0.00 0.00 0.00 80 1011.4
20260904022333 83 360 1.0 5.0 0.00 0.00 0.00 80 1011.4
20260904021829 84 360 3.0 8.0 0.00 0.00 0.00 79 1011.3
20260904021329 84 360 3.0 8.0 0.00 0.00 0.00 79 1011.3
20260904020828 84 360 2.0 9.0 0.00 0.00 0.00 79 1011.2
20260904020333 84 360 3.0 11.0 0.00 0.00 0.00 78 1011.1
20260904015851 84 360 2.0 11.0 0.00 0.00 0.00 78 1011.1
20260904015328 84 360 2.0 4.0 0.00 0.00 0.00 77 1011.1
20260904014828 85 360 3.0 5.0 0.00 0.00 0.00 77 1011.1
20260904014326 85 360 3.0 8.0 0.00 0.00 0.00 76 1010.9
20260904013824 85 360 4.0 8.0 0.00 0.00 0.00 76 1010.9
20260904013320 85 360 4.0 9.0 0.00 0.00 0.00 75 1010.7
20260904012818 85 360 3.0 9.0 0.00 0.00 0.00 75 1010.6
20260904012317 86 360 3.0 9.0 0.00 0.00 0.00 74 1010.6
20260904011816 86 360 3.0 9.0 0.00 0.00 0.00 73 1010.5
20260904011315 86 360 2.0 8.0 0.00 0.00 0.00 73 1010.5
20260904010815 86 360 3.0 11.0 0.00 0.00 0.00 73 1010.5
20260904010316 86 360 4.0 11.0 0.00 0.00 0.00 73 1010.5
20260904005816 86 360 1.0 6.0 0.00 0.00 0.00 74 1010.5
20260904005316 87 360 3.0 11.0 0.00 0.00 0.00 74 1010.5
20260904004835 87 360 3.0 11.0 0.00 0.00 0.00 73 1010.5
20260904004313 87 360 4.0 11.0 0.00 0.00 0.00 73 1010.5
20260904003812 87 360 3.0 10.0 0.00 0.00 0.00 73 1010.5
20260904003330 87 360 4.0 11.0 0.00 0.00 0.00 73 1010.5
20260904002830 87 360 4.0 10.0 0.00 0.00 0.00 72 1010.4
20260904002330 87 360 3.0 10.0 0.00 0.00 0.00 72 1010.4
20260904001827 87 360 3.0 10.0 0.00 0.00 0.00 72 1010.4
20260904001326 87 360 5.0 14.0 0.00 0.00 0.00 72 1010.3
20260904000845 87 360 5.0 14.0 0.00 0.00 0.00 72 1010.4
20260904000321 87 360 4.0 14.0 0.00 0.00 0.00 73 1010.3
20260903235819 87 360 6.0 14.0 0.00 0.00 0.00 72 1010.3
20260903235339 87 360 4.0 11.0 0.00 0.00 0.00 72 1010.2
20260903234838 88 360 5.0 11.0 0.00 0.00 0.00 72 1010.3
20260903234313 88 360 4.0 11.0 0.00 0.00 0.00 71 1010.3
20260903233813 88 360 5.0 11.0 0.00 0.00 0.00 71 1010.2
20260903233331 88 360 3.0 11.0 0.00 0.00 0.00 72 1010.2
20260903232850 88 360 3.0 12.0 0.00 0.00 0.00 71 1010.2
20260903232329 89 360 4.0 12.0 0.00 0.00 0.00 71 1010.2
20260903231828 89 360 3.0 10.0 0.00 0.00 0.00 71 1010.3
20260903231348 89 360 2.0 10.0 0.00 0.00 0.00 70 1010.3
20260903230828 89 360 3.0 12.0 0.00 0.00 0.00 70 1010.2
20260903230348 89 360 6.0 12.0 0.00 0.00 0.00 70 1010.3
20260903225827 89 360 3.0 12.0 0.00 0.00 0.00 70 1010.3
20260903225341 89 360 3.0 12.0 0.00 0.00 0.00 70 1010.3
20260903224820 89 360 4.0 20.0 0.00 0.00 0.00 69 1010.2
20260903224320 90 360 6.0 20.0 0.00 0.00 0.00 68 1010.1
20260903223818 90 360 7.0 15.0 0.00 0.00 0.00 67 1010.1
20260903223318 90 360 7.0 16.0 0.00 0.00 0.00 67 1010.2
20260903222816 90 360 4.0 16.0 0.00 0.00 0.00 68 1010.1
20260903222316 90 360 7.0 16.0 0.00 0.00 0.00 68 1010.1
20260903221816 91 360 7.0 19.0 0.00 0.00 0.00 68 1010.2
20260903221335 92 360 7.0 19.0 0.00 0.00 0.00 67 1010.0
20260903220831 93 360 8.0 18.0 0.00 0.00 0.00 66 1009.9
20260903220350 94 360 9.0 21.0 0.00 0.00 0.00 64 1009.9
20260903215827 96 360 10.0 23.0 0.00 0.00 0.00 59 1010.0
20260903215326 96 360 6.0 23.0 0.00 0.00 0.00 55 1009.6
20260903214827 96 360 4.0 15.0 0.00 0.00 0.00 57 1009.5
20260903214325 96 360 6.0 17.0 0.00 0.00 0.00 57 1009.5
20260903213824 95 360 5.0 17.0 0.00 0.00 0.00 58 1009.5
20260903213323 94 360 5.0 16.0 0.00 0.00 0.00 59 1009.7
20260903212833 93 360 6.0 20.0 0.00 0.00 0.00 59 1009.7
20260903212333 94 360 6.0 20.0 0.00 0.00 0.00 59 1009.9
20260903211812 95 360 8.0 20.0 0.00 0.00 0.00 56 1010.0
20260903211331 96 360 6.0 14.0 0.00 0.00 0.00 55 1009.8
20260903210830 97 360 6.0 12.0 0.00 0.00 0.00 54 1009.9
20260903210330 98 360 6.0 11.0 0.00 0.00 0.00 51 1009.9
20260903205831 98 360 3.0 11.0 0.00 0.00 0.00 51 1009.8
20260903205351 98 360 4.0 11.0 0.00 0.00 0.00 52 1009.8
20260903204826 98 360 5.0 11.0 0.00 0.00 0.00 52 1009.8
20260903204325 98 360 6.0 11.0 0.00 0.00 0.00 51 1009.9
20260903203815 99 360 4.0 13.0 0.00 0.00 0.00 49 1010.0
20260903203333 100 360 5.0 13.0 0.00 0.00 0.00 49 1010.0
20260903202835 101 360 7.0 13.0 0.00 0.00 0.00 49 1010.0
20260903202314 102 360 4.0 10.0 0.00 0.00 0.00 47 1010.1
20260903201812 103 360 3.0 14.0 0.00 0.00 0.00 49 1010.2
20260903201332 103 360 9.0 14.0 0.00 0.00 0.00 45 1010.3
20260903200830 103 360 4.0 10.0 0.00 0.00 0.00 49 1010.3
20260903200328 102 360 3.0 11.0 0.00 0.00 0.00 49 1010.3
20260903195820 101 360 3.0 11.0 0.00 0.00 0.00 49 1010.3
20260903195320 101 360 2.0 11.0 0.00 0.00 0.00 47 1010.4
20260903194825 101 360 3.0 11.0 0.00 0.00 0.00 51 1010.5
20260903194344 101 360 2.0 11.0 0.00 0.00 0.00 48 1010.5
20260903193824 101 360 4.0 11.0 0.00 0.00 0.00 52 1010.6
20260903193343 101 360 3.0 8.0 0.00 0.00 0.00 50 1010.6
20260903192821 101 360 2.0 8.0 0.00 0.00 0.00 50 1010.7
20260903192319 101 360 4.0 10.0 0.00 0.00 0.00 50 1010.7
20260903191812 101 360 4.0 12.0 0.00 0.00 0.00 50 1010.8
20260903191352 101 360 6.0 12.0 0.00 0.00 0.00 49 1010.8
20260903190828 101 360 4.0 11.0 0.00 0.00 0.00 49 1011.0
20260903190326 100 360 3.0 11.0 0.00 0.00 0.00 52 1011.1
20260903185851 100 360 5.0 9.0 0.00 0.00 0.00 51 1011.1
20260903185327 99 360 2.0 9.0 0.00 0.00 0.00 56 1011.2
20260903184825 99 360 2.0 8.0 0.00 0.00 0.00 54 1011.3
20260903184324 99 360 3.0 10.0 0.00 0.00 0.00 54 1011.4
20260903183818 100 360 4.0 15.0 0.00 0.00 0.00 50 1011.6
20260903183316 100 360 6.0 12.0 0.00 0.00 0.00 53 1011.6
20260903182827 100 360 3.0 9.0 0.00 0.00 0.00 55 1011.6
20260903182326 99 360 3.0 8.0 0.00 0.00 0.00 55 1011.6
20260903181826 98 360 3.0 12.0 0.00 0.00 0.00 53 1011.8
20260903181325 98 360 7.0 12.0 0.00 0.00 0.00 54 1011.9
20260903180821 98 360 4.0 12.0 0.00 0.00 0.00 52 1012.0
20260903180338 98 360 5.0 13.0 0.00 0.00 0.00 58 1012.1
20260903175830 97 360 9.0 13.0 0.00 0.00 0.00 55 1012.1
20260903175315 98 360 5.0 15.0 0.00 0.00 0.00 59 1012.2
20260903174831 97 360 6.0 15.0 0.00 0.00 0.00 55 1012.2
20260903174316 97 360 3.0 10.0 0.00 0.00 0.00 58 1012.3
20260903173851 97 360 3.0 14.0 0.00 0.00 0.00 60 1012.4
20260903173317 97 360 6.0 14.0 0.00 0.00 0.00 61 1012.4
20260903172812 96 360 5.0 12.0 0.00 0.00 0.00 59 1012.5
20260903172350 96 360 5.0 12.0 0.00 0.00 0.00 60 1012.5
20260903171828 96 360 4.0 11.0 0.00 0.00 0.00 61 1012.5
20260903171327 95 360 4.0 12.0 0.00 0.00 0.00 61 1012.6
20260903170815 95 360 6.0 12.0 0.00 0.00 0.00 62 1012.6
20260903170315 95 360 4.0 11.0 0.00 0.00 0.00 63 1012.7
20260903165812 94 360 4.0 11.0 0.00 0.00 0.00 64 1012.8
20260903165327 94 360 5.0 11.0 0.00 0.00 0.00 65 1012.8
20260903164827 94 360 5.0 11.0 0.00 0.00 0.00 66 1012.9
20260903164324 94 360 4.0 11.0 0.00 0.00 0.00 65 1012.9
20260903163823 94 360 6.0 12.0 0.00 0.00 0.00 65 1013.0
20260903163343 94 360 5.0 11.0 0.00 0.00 0.00 67 1013.0
20260903162813 93 360 5.0 11.0 0.00 0.00 0.00 69 1012.9
20260903162351 93 360 4.0 13.0 0.00 0.00 0.00 69 1013.0
20260903161849 92 360 7.0 15.0 0.00 0.00 0.00 68 1013.0
20260903161316 92 360 8.0 15.0 0.00 0.00 0.00 68 1012.9
20260903160849 92 360 6.0 13.0 0.00 0.00 0.00 71 1012.9
20260903160326 91 360 6.0 16.0 0.00 0.00 0.00 71 1013.0
20260903155841 91 360 9.0 16.0 0.00 0.00 0.00 71 1013.1
20260903155321 90 360 5.0 13.0 0.00 0.00 0.00 74 1013.1
20260903154811 89 360 5.0 14.0 0.00 0.00 0.00 75 1013.1
20260903154313 90 360 6.0 17.0 0.00 0.00 0.00 75 1013.1
20260903153813 90 360 8.0 17.0 0.00 0.00 0.00 74 1013.1
20260903153312 90 360 8.0 14.0 0.00 0.00 0.00 76 1013.0
20260903152830 89 360 7.0 15.0 0.00 0.00 0.00 76 1013.1
20260903152328 88 360 8.0 15.0 0.00 0.00 0.00 77 1013.1
20260903151814 88 360 7.0 14.0 0.00 0.00 0.00 77 1013.2
20260903151357 88 360 3.0 14.0 0.00 0.00 0.00 77 1013.1
20260903150824 88 360 7.0 14.0 0.00 0.00 0.00 78 1013.2
20260903150340 87 360 5.0 14.0 0.00 0.00 0.00 79 1013.2
20260903145827 87 360 6.0 14.0 0.00 0.00 0.00 80 1013.2
20260903145326 87 360 5.0 14.0 0.00 0.00 0.00 80 1013.1
20260903144826 87 360 8.0 13.0 0.00 0.00 0.00 80 1013.1
20260903144324 86 360 6.0 13.0 0.00 0.00 0.00 83 1013.1
20260903143823 86 360 5.0 14.0 0.00 0.00 0.00 84 1013.0
20260903143322 86 360 7.0 14.0 0.00 0.00 0.00 82 1013.1
20260903142834 86 360 6.0 13.0 0.00 0.00 0.00 84 1013.2
20260903142312 86 360 6.0 11.0 0.00 0.00 0.00 83 1013.2
20260903141831 86 360 6.0 13.0 0.00 0.00 0.00 84 1013.2
20260903141330 85 360 6.0 13.0 0.00 0.00 0.00 85 1013.1
20260903140829 85 360 7.0 14.0 0.00 0.00 0.00 86 1013.0
20260903140326 85 360 9.0 14.0 0.00 0.00 0.00 86 1013.2
20260903135844 84 360 8.0 11.0 0.00 0.00 0.00 87 1013.2
20260903135324 84 360 6.0 13.0 0.00 0.00 0.00 88 1013.2
20260903134817 84 360 7.0 13.0 0.00 0.00 0.00 88 1013.2
20260903134316 84 360 4.0 12.0 0.00 0.00 0.00 88 1013.3
20260903133816 83 360 5.0 11.0 0.00 0.00 0.00 88 1013.2
20260903133334 83 360 6.0 12.0 0.00 0.00 0.00 89 1013.1
20260903132812 83 360 6.0 12.0 0.00 0.00 0.00 89 1013.1
20260903132330 83 360 4.0 10.0 0.00 0.00 0.00 89 1013.1
20260903131829 83 360 3.0 10.0 0.00 0.00 0.00 90 1013.2
20260903131328 83 360 5.0 11.0 0.00 0.00 0.00 90 1013.2
20260903130827 83 360 5.0 10.0 0.00 0.00 0.00 90 1013.2
20260903130327 82 360 3.0 10.0 0.00 0.00 0.00 90 1013.2
20260903125821 82 360 4.0 9.0 0.00 0.00 0.00 90 1013.2
20260903125340 82 360 5.0 9.0 0.00 0.00 0.00 90 1013.1
20260903124853 82 360 2.0 9.0 0.00 0.00 0.00 90 1013.0
20260903124330 82 360 2.0 5.0 0.00 0.00 0.00 90 1013.0
20260903123829 82 360 2.0 9.0 0.00 0.00 0.00 90 1013.0
20260903123329 82 360 3.0 9.0 0.00 0.00 0.00 90 1012.9
20260903122841 82 360 3.0 9.0 0.00 0.00 0.00 90 1012.9
20260903122321 82 360 3.0 9.0 0.00 0.00 0.00 90 1012.8
20260903121839 82 360 4.0 9.0 0.00 0.00 0.00 90 1012.8
20260903121318 82 360 2.0 11.0 0.00 0.00 0.00 89 1012.8
20260903120816 82 360 3.0 11.0 0.00 0.00 0.00 89 1012.7
20260903120317 82 360 3.0 10.0 0.00 0.00 0.00 89 1012.7
20260903115816 82 360 5.0 11.0 0.00 0.00 0.00 89 1012.5
20260903115315 82 360 6.0 11.0 0.00 0.00 0.00 89 1012.5
20260903114834 82 360 4.0 8.0 0.00 0.00 0.00 89 1012.6
20260903114333 82 360 4.0 9.0 0.00 0.00 0.00 88 1012.5
20260903113826 83 360 3.0 9.0 0.00 0.00 0.00 88 1012.6
20260903113346 83 360 3.0 9.0 0.00 0.00 0.00 88 1012.6
20260903112824 83 360 3.0 8.0 0.00 0.00 0.00 88 1012.5
20260903112323 83 360 3.0 11.0 0.00 0.00 0.00 88 1012.5
20260903111823 83 360 4.0 16.0 0.00 0.00 0.00 88 1012.4
20260903111322 83 360 6.0 16.0 0.00 0.00 0.00 88 1012.4
20260903110820 83 360 6.0 13.0 0.00 0.00 0.00 88 1012.4
20260903110320 83 360 6.0 13.0 0.00 0.00 0.00 88 1012.5
20260903105820 83 360 4.0 14.0 0.00 0.00 0.00 88 1012.5
20260903105319 83 360 4.0 10.0 0.00 0.00 0.00 88 1012.4
20260903104818 83 360 5.0 14.0 0.00 0.00 0.00 88 1012.3
20260903104316 83 360 4.0 14.0 0.00 0.00 0.00 88 1012.3
20260903103834 83 360 6.0 14.0 0.00 0.00 0.00 88 1012.3
20260903103314 83 360 7.0 12.0 0.00 0.00 0.00 88 1012.3
20260903102833 83 360 3.0 12.0 0.00 0.00 0.00 89 1012.3
20260903102352 83 360 4.0 12.0 0.00 0.00 0.00 89 1012.3
20260903101829 83 360 4.0 12.0 0.00 0.00 0.00 89 1012.3
20260903101327 83 360 5.0 13.0 0.00 0.00 0.00 89 1012.3
20260903100826 83 360 6.0 13.0 0.00 0.00 0.00 89 1012.3
20260903100325 83 360 6.0 12.0 0.00 0.00 0.00 89 1012.3
20260903095846 83 360 3.0 12.0 0.00 0.00 0.00 89 1012.4
20260903095325 83 360 6.0 12.0 0.00 0.00 0.00 89 1012.3
20260903094835 83 360 7.0 12.0 0.00 0.00 0.00 89 1012.4
20260903094312 83 360 4.0 13.0 0.00 0.00 0.00 89 1012.4
20260903093851 83 360 6.0 13.0 0.00 0.00 0.00 89 1012.4
20260903093331 83 360 3.0 8.0 0.00 0.00 0.00 89 1012.5
20260903092830 83 360 4.0 10.0 0.00 0.00 0.00 89 1012.5
20260903092312 83 360 6.0 10.0 0.00 0.00 0.00 89 1012.5
20260903091812 83 360 5.0 10.0 0.00 0.00 0.00 89 1012.5
20260903091331 83 360 4.0 11.0 0.00 0.00 0.00 89 1012.5
20260903090827 83 360 6.0 11.0 0.00 0.00 0.00 89 1012.5
20260903090326 83 360 5.0 9.0 0.00 0.00 0.00 89 1012.5
20260903085826 83 360 2.0 11.0 0.00 0.00 0.00 89 1012.5
20260903085325 83 360 5.0 11.0 0.00 0.00 0.00 89 1012.5
20260903084823 83 360 7.0 11.0 0.00 0.00 0.00 89 1012.5
20260903084359 83 360 4.0 11.0 0.00 0.00 0.00 89 1012.5
20260903083847 83 360 5.0 13.0 0.00 0.00 0.00 88 1012.5
20260903083327 83 360 6.0 13.0 0.00 0.00 0.00 89 1012.5
20260903082826 83 360 5.0 11.0 0.00 0.00 0.00 88 1012.5
20260903082327 83 360 6.0 11.0 0.00 0.00 0.00 88 1012.5
20260903081829 83 360 4.0 10.0 0.00 0.00 0.00 88 1012.5
20260903081328 83 360 6.0 10.0 0.00 0.00 0.00 88 1012.6
20260903080849 83 360 5.0 10.0 0.00 0.00 0.00 88 1012.6
20260903080348 83 360 3.0 9.0 0.00 0.00 0.00 88 1012.5
20260903075820 83 360 4.0 8.0 0.00 0.00 0.00 88 1012.6
20260903075320 83 360 5.0 11.0 0.00 0.00 0.00 88 1012.6
20260903074841 83 360 5.0 11.0 0.00 0.00 0.00 88 1012.8
20260903074321 83 360 4.0 8.0 0.00 0.00 0.00 88 1012.7
20260903073822 83 360 4.0 8.0 0.00 0.00 0.00 88 1012.8
20260903073324 83 360 4.0 8.0 0.00 0.00 0.00 88 1012.7
20260903072823 83 360 2.0 8.0 0.00 0.00 0.00 88 1012.6
20260903072324 83 360 4.0 12.0 0.00 0.00 0.00 88 1012.6
20260903071836 83 360 6.0 12.0 0.00 0.00 0.00 88 1012.6
20260903071351 83 360 5.0 9.0 0.00 0.00 0.00 87 1012.7
20260903070829 83 360 5.0 13.0 0.00 0.00 0.00 87 1012.6
20260903070331 83 360 6.0 11.0 0.00 0.00 0.00 87 1012.7
20260903065829 83 360 6.0 11.0 0.00 0.00 0.00 87 1012.7
20260903065330 83 360 8.0 11.0 0.00 0.00 0.00 87 1012.8
20260903064851 83 360 8.0 11.0 0.00 0.00 0.00 86 1012.8
20260903064332 83 360 5.0 12.0 0.00 0.00 0.00 86 1012.8
20260903063832 83 360 6.0 12.0 0.00 0.00 0.00 86 1012.8
20260903063332 83 360 5.0 14.0 0.00 0.00 0.00 86 1012.8
20260903062813 83 360 8.0 13.0 0.00 0.00 0.00 85 1012.8
20260903062334 83 360 8.0 13.0 0.00 0.00 0.00 85 1012.8
20260903061846 84 360 6.0 17.0 0.00 0.00 0.00 85 1012.8
20260903061327 84 360 8.0 17.0 0.00 0.00 0.00 85 1012.8
20260903060826 84 360 9.0 16.0 0.00 0.00 0.00 84 1012.8
20260903060326 84 360 7.0 13.0 0.00 0.00 0.00 84 1012.7
20260903055846 84 360 7.0 12.0 0.00 0.00 0.00 84 1012.8
20260903055326 84 360 5.0 14.0 0.00 0.00 0.00 83 1012.8
20260903054825 84 360 7.0 14.0 0.00 0.00 0.00 83 1012.8
20260903054326 84 360 8.0 16.0 0.00 0.00 0.00 82 1013.0
20260903053825 84 360 8.0 16.0 0.00 0.00 0.00 82 1013.0
20260903053327 84 360 8.0 13.0 0.00 0.00 0.00 82 1013.0
20260903052829 84 360 7.0 11.0 0.00 0.00 0.00 81 1013.0
20260903052317 84 360 6.0 14.0 0.00 0.00 0.00 81 1013.0
20260903051830 84 360 7.0 14.0 0.00 0.00 0.00 81 1013.0
20260903051329 84 360 7.0 16.0 0.00 0.00 0.00 80 1012.9
20260903050846 84 360 8.0 15.0 0.00 0.00 0.00 80 1012.8
20260903050325 84 360 6.0 11.0 0.00 0.00 0.00 78 1012.8
20260903045816 85 360 4.0 15.0 0.00 0.00 0.00 77 1012.9
20260903045318 85 360 5.0 15.0 0.00 0.00 0.00 77 1012.9
20260903044819 85 360 4.0 9.0 0.00 0.00 0.00 76 1012.9
20260903044320 85 360 4.0 12.0 0.00 0.00 0.00 75 1012.9
20260903043819 85 360 8.0 13.0 0.00 0.00 0.00 75 1012.9
20260903043320 85 360 6.0 11.0 0.00 0.00 0.00 74 1012.9
20260903042820 85 360 4.0 9.0 0.00 0.00 0.00 73 1012.9
20260903042322 85 360 4.0 9.0 0.00 0.00 0.00 72 1012.9
20260903041821 85 360 4.0 12.0 0.00 0.00 0.00 72 1012.9
20260903041323 85 360 4.0 12.0 0.00 0.00 0.00 71 1012.8
20260903040825 85 360 5.0 10.0 0.00 0.00 0.00 71 1012.7
20260903040325 85 360 3.0 11.0 0.00 0.00 0.00 71 1012.7
20260903035826 85 360 4.0 12.0 0.00 0.00 0.00 71 1012.7
20260903035324 86 360 5.0 12.0 0.00 0.00 0.00 70 1012.6
20260903034826 86 360 4.0 9.0 0.00 0.00 0.00 70 1012.5
20260903034326 86 360 4.0 9.0 0.00 0.00 0.00 69 1012.4
20260903033835 86 360 3.0 8.0 0.00 0.00 0.00 68 1012.4
20260903033314 87 360 3.0 9.0 0.00 0.00 0.00 68 1012.4
20260903032816 87 360 3.0 12.0 0.00 0.00 0.00 69 1012.3
20260903032314 87 360 4.0 12.0 0.00 0.00 0.00 69 1012.3
20260903031814 87 360 4.0 10.0 0.00 0.00 0.00 70 1012.3
20260903031315 88 360 3.0 14.0 0.00 0.00 0.00 70 1012.2
20260903030814 88 360 4.0 14.0 0.00 0.00 0.00 69 1012.1